Regional Weather Roundup
Issued by NWS State College, PA

Home | Current Version | Previous Version | Graphics & Text | Print | Product List | Glossary On
Versions: 1 2 3 4 5 6 7 8 9 10 11 12 13 14 15 16 17 18 19 20 21 22 23 24 25 26 27 28 29 30 31 32 33 34 35 36 37 38 39 40 41 42 43 44 45 46 47 48 49 50
000
ASUS41 KCTP 250203
RWRCTP

REGIONAL WEATHER ROUNDUP
NATIONAL WEATHER SERVICE STATE COLLEGE PA
1000 PM EDT THU MAY 24 2018

Note: "fair" indicates few or no clouds below 12,000 feet with no
significant weather and/or obstructions to visibility.

* = STATION THAT DOES NOT REPORT PRECIPITATION /E.G. RAIN...SNOW...ETC/
    THUNDER OR FOG.

PAZ002>004-007>009-013>016-020>023-029>032-250300-
WESTERN PENNSYLVANIA

CITY           SKY/WX    TMP DP  RH WIND       PRES   REMARKS
ERIE           FAIR      66  50  56 CALM      30.11S
MEADVILLE      FAIR      66  44  45 CALM      30.13F
FRANKLIN*      FAIR      67  47  48 N3        30.15S
NEW CASTLE     FAIR      61  55  81 CALM      30.13S
BEAVER COUNTY  NOT AVBL
BUTLER*        FAIR      65  51  60 CALM      30.14S
PITTSBURGH INT MOCLDY    70  53  54 CALM      30.12R
PITTSBURGH     FAIR      74  45  35 E3        30.12R
INDIANA*       PTCLDY    63  55  77 CALM      30.18R
LATROBE        CLEAR     64  55  72 CALM      30.14R
WASHINGTON CO* FAIR      63  58  83 CALM      30.16R
$$

PAZ004>006-010>012-017>019-024>028-033>037-041-042-045-046-049>053-250300-
CENTRAL PENNSYLVANIA

CITY           SKY/WX    TMP DP  RH WIND       PRES   REMARKS
BRADFORD       FAIR      57  46  66 CALM      30.16R
DUBOIS         FAIR      63  50  62 SW5       30.15R
CLEARFIELD     FAIR      66  51  58 S3        30.14R
JOHNSTOWN      FAIR      70  47  43 S5        30.18R
ALTOONA        FAIR      70  50  49 S5        30.16R
STATE COLLEGE  CLEAR     72  50  46 CALM      30.13R
WILLIAMSPORT   FAIR      69  53  56 N7        30.07R
SELINSGROVE    FAIR      59  56  89 CALM      30.10R
FT INDIANTOWN  CLEAR     63  52  67 CALM      30.11R
CAPITAL CITY   FAIR      71  50  47 CALM      30.11R
HARRISBURG     FAIR      70  53  54 SW5       30.10R
YORK           FAIR      67  52  58 SW6       30.13R
$$

PAZ038>040-043-044-047-048-054-055-060>062-067>071-250300-
EASTERN PENNSYLVANIA

CITY           SKY/WX    TMP DP  RH WIND       PRES   REMARKS
SCRANTON       FAIR      67  49  52 E6        30.10S
MOUNT POCONO   FAIR      56  51  84 CALM      30.15R
ALLENTOWN      FAIR      67  51  56 SW6       30.10R
QUAKERTOWN*    CLEAR     64  55  72 CALM      30.12R
READING        FAIR      72  51  47 CALM      30.10R
LANCASTER      FAIR      72  50  45 S6        30.12R
COATESVILLE    FAIR      70  50  49 SW5       30.15R
POTTSTOWN      FAIR      67  51  56 CALM      30.13R
BLUE BELL      FAIR      70  52  52 S7        30.13R
DOYLESTOWN     FAIR      68  51  54 S3        30.10R
WILLOW GROVE   NOT AVBL
NORTH PHILA    FAIR      74  50  42 SW10      30.13R
PHILADELPHIA   FAIR      69  47  45 SW8       30.13R
$$




USA.gov is the U.S. government's official web portal to all federal, state and local government web resources and services.